Dad Vail Regatta REVISED 2017
#3 Women's Frosh/Novice Four w/Cox,Top 18 To Semi Final, Remainder to Lower Level Finals (08:10)
Official



<--Previous        Next Event 4 Men's Frosh/Novice Hvwt Eight,Top 18 To Semi Final, Remainder to Lower Level Finals-->

Rank/Rang Number/Dossard l Name/Nom Time/Temps ()   Time/Temps   %
1 285 Bowdoin 7 (Gray, I.) 07:23.745   07:23.745  
2 286 Purdue 87 (Cronin, E.) 07:24.941   07:24.941 0.27
3 284 George Mason 42 (Williams, A.) 07:25.734   07:25.734 0.45
4 288 Middlebury 71 (Goodman, N.) 07:28.271   07:28.271 1.02
5 294 Ohio St. 81 (Moretina, J.) 07:31.508   07:31.508 1.75
6 287 Army 2 (Owens, A.) 07:33.601   07:33.601 2.22
7 276 Delaware 29 (Giardina, M.) 07:34.559   07:34.559 2.44
8 275 Lafayette 55 (Cranley, C.) 07:36.695   07:36.695 2.92
9 282 Jacksonville 52 (Finsie, L.) 07:37.745   07:37.745 3.15
10 281 Central Okla 15 (Hammonds, S.) 07:38.579   07:38.579 3.34
11 298 High Point 48 (Kelley, T.) 07:39.188   07:39.188 3.48
12 280 Philadelphia U 85 (Reid, B.) 07:41.750   07:41.750 4.06
13 293 North Park 79 (Klippert, H.) 07:44.081   07:44.081 4.58
14 296 Chicago 17 (Ratakonda, M.) 07:45.118   07:45.118 4.82
15 297 Mass-Lowell 64 (Kearns, A.) 07:46.921   07:46.921 5.22
16 290 Emory 35 (Stapel, N.) 07:47.092   07:47.092 5.26
17 278 MSOE 75 (Borgialli, C.) 07:48.710   07:48.710 5.63
18 279 Merchant Marine 66 (Lytle, A.) 07:49.560   07:49.560 5.82
19 283 Grand Valley 47 (Thoits, A.) 07:52.155   07:52.155 6.4
20 299 Ohio U 82 (Brandewiede, E.) 07:53.965   07:53.965 6.81
21 289 Georgia Tech 45 (Brewer, L.) 07:55.287   07:55.287 7.11
22 277 Fordham 40 (Register, L.) 07:55.401   07:55.401 7.13
23 291 Marquette 62 (Riemer, M.) 08:16.112   08:16.112 11.8
24 295 Bryant 10 (Paglierani, L.) 08:27.806   08:27.806 14.44
- 292 Tennessee 102 (Robbins, A.)     DNF  
- 300 Bucknell 11 (Chase, O.)     DNS  


Legend:
DNS = Did Not Start   DNF = Did Not Finish   DSQ = Disqualified   OTL = Over Time Limit